N5KR Weather Reports


Display with metric or nautical units.
time (UTC)temp
F
wind
direction
speed
MPH
gust
MPH
rain 1hr
in
rain 24hr
in
rain mn
in
humidity
%
barometer
mb
20260831122004 82 189 2.0 5.0 0.00 0.00 0.00 66 1016.5
20260831121505 82 223 2.0 7.0 0.00 0.00 0.00 66 1016.4
20260831121004 82 205 1.0 7.0 0.00 0.00 0.00 66 1016.3
20260831120504 82 200 3.0 8.0 0.00 0.00 0.00 66 1016.3
20260831120004 82 207 3.0 7.0 0.00 0.00 0.00 66 1016.3
20260831115504 82 201 3.0 8.0 0.00 0.00 0.00 67 1016.2
20260831115004 81 194 2.0 7.0 0.00 0.00 0.00 68 1016.1
20260831114504 81 200 0.0 2.0 0.00 0.00 0.00 68 1016.1
20260831114003 82 197 1.0 3.0 0.00 0.00 0.00 67 1016.0
20260831113504 82 182 1.0 3.0 0.00 0.00 0.00 67 1016.0
20260831113004 82 200 1.0 3.0 0.00 0.00 0.00 67 1016.0
20260831112503 82 200 1.0 3.0 0.00 0.00 0.00 66 1015.9
20260831111004 82 239 2.0 8.0 0.00 0.00 0.00 66 1015.8
20260831110004 82 186 1.0 5.0 0.00 0.00 0.00 66 1015.8
20260831105504 83 228 2.0 6.0 0.00 0.00 0.00 66 1015.8
20260831104504 83 200 3.0 8.0 0.00 0.00 0.00 66 1015.8
20260831104004 83 218 3.0 7.0 0.00 0.00 0.00 65 1015.7
20260831103003 83 190 4.0 13.0 0.00 0.00 0.00 65 1015.8
20260831102503 83 207 3.0 8.0 0.00 0.00 0.00 65 1015.8
20260831102004 83 214 2.0 9.0 0.00 0.00 0.00 64 1015.8
20260831101504 83 216 4.0 10.0 0.00 0.00 0.00 64 1015.7
20260831101004 83 227 2.0 9.0 0.00 0.00 0.00 64 1015.7
20260831100503 83 251 2.0 6.0 0.00 0.00 0.00 64 1015.7
20260831100004 83 196 2.0 5.0 0.00 0.00 0.00 63 1015.7
20260831095503 83 224 3.0 7.0 0.00 0.00 0.00 62 1015.7
20260831095004 84 213 2.0 8.0 0.00 0.00 0.00 62 1015.7
20260831094504 84 218 3.0 8.0 0.00 0.00 0.00 62 1015.6
20260831094004 84 206 3.0 12.0 0.00 0.00 0.00 61 1015.7
20260831093504 84 198 2.0 10.0 0.00 0.00 0.00 61 1015.7
20260831093003 84 208 2.0 8.0 0.00 0.00 0.00 61 1015.6
20260831092003 84 182 3.0 6.0 0.00 0.00 0.00 60 1015.5
20260831091504 84 206 2.0 7.0 0.00 0.00 0.00 59 1015.5
20260831091004 84 224 2.0 7.0 0.00 0.00 0.00 59 1015.4
20260831090004 84 223 3.0 7.0 0.00 0.00 0.00 58 1015.3
20260831084507 85 220 2.0 7.0 0.00 0.00 0.00 57 1015.3
20260831084007 85 206 2.0 6.0 0.00 0.00 0.00 56 1015.3
20260831083507 85 230 3.0 8.0 0.00 0.00 0.00 56 1015.3
20260831083007 85 258 3.0 8.0 0.00 0.00 0.00 55 1015.3
20260831082506 85 232 3.0 9.0 0.00 0.00 0.00 54 1015.3
20260831082006 86 199 4.0 9.0 0.00 0.00 0.00 54 1015.3
20260831081506 86 224 4.0 9.0 0.00 0.00 0.00 53 1015.3
20260831080006 86 222 4.0 9.0 0.00 0.00 0.00 51 1015.2
20260831075506 86 196 2.0 7.0 0.00 0.00 0.00 51 1015.2
20260831074506 86 212 3.0 8.0 0.00 0.00 0.00 50 1015.1
20260831074007 86 205 3.0 8.0 0.00 0.00 0.00 50 1015.1
20260831073506 86 164 2.0 6.0 0.00 0.00 0.00 50 1015.1
20260831073007 86 238 2.0 5.0 0.00 0.00 0.00 49 1015.1
20260831072507 86 216 2.0 6.0 0.00 0.00 0.00 49 1014.9
20260831072007 86 183 2.0 5.0 0.00 0.00 0.00 49 1015.0
20260831071507 87 199 1.0 5.0 0.00 0.00 0.00 49 1015.0
20260831071006 86 172 2.0 6.0 0.00 0.00 0.00 49 1015.0
20260831070006 87 179 2.0 5.0 0.00 0.00 0.00 49 1015.1
20260831065507 87 169 2.0 5.0 0.00 0.00 0.00 49 1015.1
20260831065007 87 187 3.0 7.0 0.00 0.00 0.00 49 1015.2
20260831064007 87 194 2.0 5.0 0.00 0.00 0.00 50 1015.2
20260831063506 87 213 2.0 3.0 0.00 0.00 0.00 50 1015.1
20260831063006 87 202 0.0 3.0 0.00 0.00 0.00 50 1015.1
20260831062506 87 202 1.0 2.0 0.00 0.00 0.00 51 1015.0
20260831062007 87 198 1.0 3.0 0.00 0.00 0.00 50 1015.1
20260831061506 87 189 1.0 5.0 0.00 0.00 0.00 50 1015.1
20260831060007 88 201 3.0 7.0 0.00 0.00 0.00 49 1015.1
20260831055007 88 185 2.0 6.0 0.00 0.00 0.00 48 1015.3
20260831054506 89 169 3.0 6.0 0.00 0.00 0.00 48 1015.4
20260831054006 89 184 3.0 7.0 0.00 0.00 0.00 47 1015.3
20260831053506 89 180 3.0 7.0 0.00 0.00 0.00 47 1015.2
20260831053006 88 182 4.0 10.0 0.00 0.00 0.00 47 1015.2
20260831052507 88 180 5.0 9.0 0.00 0.00 0.00 48 1015.1
20260831052006 88 184 2.0 5.0 0.00 0.00 0.00 48 1015.0
20260831051507 88 170 1.0 3.0 0.00 0.00 0.00 48 1014.8
20260831051006 88 169 1.0 2.0 0.00 0.00 0.00 48 1015.0
20260831050506 89 169 2.0 5.0 0.00 0.00 0.00 47 1014.9
20260831050007 89 172 3.0 7.0 0.00 0.00 0.00 46 1014.9
20260831045506 89 177 3.0 7.0 0.00 0.00 0.00 46 1015.0
20260831044507 89 169 2.0 10.0 0.00 0.00 0.00 46 1014.9
20260831044006 89 188 4.0 7.0 0.00 0.00 0.00 46 1015.0
20260831043506 89 186 4.0 7.0 0.00 0.00 0.00 46 1015.0
20260831043007 89 178 3.0 7.0 0.00 0.00 0.00 46 1015.0
20260831042506 89 190 3.0 7.0 0.00 0.00 0.00 46 1014.9
20260831042006 89 167 4.0 8.0 0.00 0.00 0.00 46 1014.9
20260831041506 89 180 4.0 6.0 0.00 0.00 0.00 46 1014.9
20260831040506 89 175 2.0 6.0 0.00 0.00 0.00 46 1015.0
20260831040006 89 176 2.0 3.0 0.00 0.00 0.00 45 1014.9
20260831035006 89 187 2.0 5.0 0.00 0.00 0.00 46 1014.8
20260831034506 89 198 3.0 7.0 0.00 0.00 0.00 46 1014.7
20260831034006 89 170 2.0 6.0 0.00 0.00 0.00 46 1014.7
20260831033006 89 163 0.0 0.0 0.00 0.00 0.00 46 1014.7
20260831032506 89 146 0.0 0.0 0.00 0.00 0.00 46 1014.6
20260831032006 89 146 1.0 5.0 0.00 0.00 0.00 46 1014.6
20260831031506 89 146 2.0 3.0 0.00 0.00 0.00 45 1014.6
20260831031006 89 146 2.0 3.0 0.00 0.00 0.00 45 1014.6
20260831030006 90 146 2.0 3.0 0.00 0.00 0.00 44 1014.6
20260831025506 90 146 2.0 3.0 0.00 0.00 0.00 44 1014.5
20260831025006 90 146 2.0 6.0 0.00 0.00 0.00 43 1014.4
20260831024507 91 159 2.0 6.0 0.00 0.00 0.00 43 1014.4
20260831024006 91 164 3.0 7.0 0.00 0.00 0.00 42 1014.3
20260831023506 91 164 2.0 7.0 0.00 0.00 0.00 42 1014.2
20260831023006 91 157 2.0 5.0 0.00 0.00 0.00 42 1014.2
20260831022506 91 161 2.0 5.0 0.00 0.00 0.00 42 1014.1
20260831022006 91 169 2.0 5.0 0.00 0.00 0.00 42 1014.0
20260831021506 91 169 2.0 6.0 0.00 0.00 0.00 42 1013.9
20260831021006 91 166 2.0 6.0 0.00 0.00 0.00 42 1013.9
20260831020006 92 166 0.0 5.0 0.00 0.00 0.00 42 1013.8
20260831015506 92 166 2.0 5.0 0.00 0.00 0.00 41 1013.7
20260831015006 92 166 2.0 6.0 0.00 0.00 0.00 41 1013.6
20260831014506 93 167 3.0 7.0 0.00 0.00 0.00 40 1013.6
20260831014006 93 171 3.0 7.0 0.00 0.00 0.00 40 1013.6
20260831013506 93 158 4.0 7.0 0.00 0.00 0.00 40 1013.5
20260831012506 94 171 3.0 7.0 0.00 0.00 0.00 40 1013.5
20260831012005 94 162 6.0 8.0 0.00 0.00 0.00 39 1013.4
20260831011505 94 165 4.0 8.0 0.00 0.00 0.00 39 1013.4
20260831011006 94 170 4.0 7.0 0.00 0.00 0.00 39 1013.4
20260831010506 94 157 5.0 10.0 0.00 0.00 0.00 39 1013.3
20260831010006 94 171 5.0 10.0 0.00 0.00 0.00 38 1013.4
20260831005505 95 170 5.0 10.0 0.00 0.00 0.00 38 1013.3
20260831005006 95 168 6.0 10.0 0.00 0.00 0.00 38 1013.3
20260831004006 95 179 2.0 6.0 0.00 0.00 0.00 37 1013.3
20260831003506 96 164 5.0 8.0 0.00 0.00 0.00 36 1013.3
20260831003006 96 173 6.0 12.0 0.00 0.00 0.00 36 1013.3
20260831002506 96 145 5.0 10.0 0.00 0.00 0.00 36 1013.3
20260831002006 96 156 4.0 9.0 0.00 0.00 0.00 36 1013.4
20260831001506 96 162 8.0 13.0 0.00 0.00 0.00 36 1013.3
20260831001006 96 156 6.0 13.0 0.00 0.00 0.00 35 1013.4
20260831000505 97 173 5.0 9.0 0.00 0.00 0.00 35 1013.4
20260831000006 97 200 6.0 13.0 0.00 0.00 0.00 35 1013.4
20260830235005 97 159 5.0 10.0 0.00 0.00 0.00 34 1013.5
20260830234505 97 163 7.0 13.0 0.00 0.00 0.00 34 1013.5
20260830233505 98 181 5.0 12.0 0.00 0.00 0.00 33 1013.4
20260830233006 98 178 6.0 13.0 0.00 0.00 0.00 32 1013.4
20260830232506 98 197 3.0 12.0 0.00 0.00 0.00 32 1013.4
20260830232005 98 194 6.0 13.0 0.00 0.00 0.00 32 1013.4
20260830231506 98 169 9.0 14.0 0.00 0.00 0.00 32 1013.5
20260830231005 99 186 7.0 13.0 0.00 0.00 0.00 32 1013.6
20260830230006 99 185 6.0 13.0 0.00 0.00 0.00 32 1013.5
20260830225505 99 220 7.0 14.0 0.00 0.00 0.00 31 1013.4
20260830225006 99 167 5.0 9.0 0.00 0.00 0.00 31 1013.5
20260830224505 99 199 5.0 12.0 0.00 0.00 0.00 32 1013.6
20260830224005 100 161 7.0 12.0 0.00 0.00 0.00 31 1013.8
20260830223506 100 190 6.0 12.0 0.00 0.00 0.00 31 1013.8
20260830223006 100 174 6.0 14.0 0.00 0.00 0.00 31 1013.7
20260830222505 100 191 5.0 10.0 0.00 0.00 0.00 32 1013.7
20260830222005 99 255 5.0 13.0 0.00 0.00 0.00 32 1013.7
20260830221006 100 189 6.0 15.0 0.00 0.00 0.00 33 1013.6
20260830220005 99 146 9.0 14.0 0.00 0.00 0.00 33 1013.8
20260830215505 99 185 3.0 10.0 0.00 0.00 0.00 33 1013.7
20260830215005 99 161 8.0 14.0 0.00 0.00 0.00 32 1013.8
20260830214006 101 193 7.0 13.0 0.00 0.00 0.00 31 1013.9
20260830213006 102 145 5.0 13.0 0.00 0.00 0.00 30 1014.1
20260830212505 101 180 7.0 12.0 0.00 0.00 0.00 32 1014.0
20260830212005 101 240 3.0 10.0 0.00 0.00 0.00 31 1014.1
20260830211505 101 185 5.0 10.0 0.00 0.00 0.00 31 1014.2
20260830211005 101 190 10.0 16.0 0.00 0.00 0.00 32 1014.2
20260830210505 101 160 6.0 20.0 0.00 0.00 0.00 31 1014.3
20260830210006 102 186 7.0 16.0 0.00 0.00 0.00 31 1014.3
20260830205505 100 206 3.0 10.0 0.00 0.00 0.00 32 1014.3
20260830205005 101 195 8.0 15.0 0.00 0.00 0.00 31 1014.3
20260830204505 101 168 11.0 18.0 0.00 0.00 0.00 32 1014.3
20260830203505 101 203 6.0 12.0 0.00 0.00 0.00 32 1014.7
20260830203006 101 220 4.0 10.0 0.00 0.00 0.00 32 1014.7
20260830202505 101 213 7.0 13.0 0.00 0.00 0.00 31 1014.8
20260830202005 100 203 10.0 21.0 0.00 0.00 0.00 32 1014.8
20260830201005 101 163 9.0 16.0 0.00 0.00 0.00 33 1014.9
20260830200005 101 191 5.0 14.0 0.00 0.00 0.00 33 1015.1
20260830195505 101 169 11.0 18.0 0.00 0.00 0.00 32 1015.1
20260830195006 101 165 6.0 17.0 0.00 0.00 0.00 33 1015.2
20260830194505 100 190 5.0 10.0 0.00 0.00 0.00 34 1015.2
20260830194006 101 165 7.0 14.0 0.00 0.00 0.00 34 1015.2
20260830193005 101 175 9.0 23.0 0.00 0.00 0.00 34 1015.4
20260830191505 99 163 9.0 21.0 0.00 0.00 0.00 35 1015.5
20260830191005 100 161 9.0 22.0 0.00 0.00 0.00 35 1015.6
20260830190505 99 169 4.0 13.0 0.00 0.00 0.00 36 1015.6
20260830190005 100 228 3.0 13.0 0.00 0.00 0.00 36 1015.7
20260830185505 100 204 10.0 17.0 0.00 0.00 0.00 37 1015.7
20260830185005 100 172 9.0 18.0 0.00 0.00 0.00 36 1015.9
20260830184505 100 176 5.0 12.0 0.00 0.00 0.00 36 1015.8
20260830184005 100 205 4.0 12.0 0.00 0.00 0.00 37 1016.0
20260830183505 99 219 6.0 13.0 0.00 0.00 0.00 37 1016.0
20260830183004 100 167 8.0 13.0 0.00 0.00 0.00 36 1016.0
20260830182504 99 190 6.0 13.0 0.00 0.00 0.00 36 1016.2
20260830182005 99 201 3.0 13.0 0.00 0.00 0.00 37 1016.2
20260830181506 100 185 5.0 13.0 0.00 0.00 0.00 36 1016.3
20260830180505 99 210 6.0 13.0 0.00 0.00 0.00 38 1016.4
20260830180005 98 170 7.0 13.0 0.00 0.00 0.00 39 1016.6
20260830175505 99 185 7.0 17.0 0.00 0.00 0.00 38 1016.5
20260830175005 98 169 6.0 15.0 0.00 0.00 0.00 42 1016.7
20260830174504 98 186 7.0 13.0 0.00 0.00 0.00 41 1016.6
20260830174005 98 161 7.0 14.0 0.00 0.00 0.00 42 1016.8
20260830173505 98 167 6.0 13.0 0.00 0.00 0.00 43 1016.9
20260830173005 97 165 6.0 13.0 0.00 0.00 0.00 43 1017.0
20260830172504 98 172 7.0 12.0 0.00 0.00 0.00 42 1017.2
20260830171505 97 206 3.0 10.0 0.00 0.00 0.00 44 1017.2
20260830171005 96 234 3.0 16.0 0.00 0.00 0.00 44 1017.3
20260830170505 96 273 6.0 14.0 0.00 0.00 0.00 44 1017.4
20260830170005 96 249 5.0 12.0 0.00 0.00 0.00 44 1017.5
20260830165504 97 225 6.0 13.0 0.00 0.00 0.00 43 1017.4
20260830165005 97 216 5.0 14.0 0.00 0.00 0.00 43 1017.5
20260830164505 96 172 5.0 14.0 0.00 0.00 0.00 43 1017.6
20260830164004 96 224 4.0 13.0 0.00 0.00 0.00 43 1017.6
20260830163005 96 189 6.0 10.0 0.00 0.00 0.00 44 1017.6
20260830162505 95 189 6.0 13.0 0.00 0.00 0.00 46 1017.7
20260830161005 94 170 6.0 13.0 0.00 0.00 0.00 48 1017.7
20260830160504 94 174 6.0 15.0 0.00 0.00 0.00 48 1017.7
20260830160004 94 194 7.0 15.0 0.00 0.00 0.00 48 1017.6
20260830154504 93 177 3.0 12.0 0.00 0.00 0.00 50 1017.6
20260830154005 93 235 5.0 12.0 0.00 0.00 0.00 50 1017.7
20260830153504 92 223 6.0 13.0 0.00 0.00 0.00 51 1017.7
20260830153004 92 200 8.0 16.0 0.00 0.00 0.00 53 1017.6
20260830152505 92 168 5.0 13.0 0.00 0.00 0.00 53 1017.7
20260830152005 92 239 6.0 13.0 0.00 0.00 0.00 52 1017.7
20260830151504 91 237 3.0 10.0 0.00 0.00 0.00 53 1017.7
20260830151005 91 213 3.0 9.0 0.00 0.00 0.00 53 1017.7
20260830150505 90 218 3.0 13.0 0.00 0.00 0.00 54 1017.6
20260830150005 91 235 3.0 9.0 0.00 0.00 0.00 54 1017.7
20260830145505 90 235 2.0 6.0 0.00 0.00 0.00 55 1017.5
20260830145005 90 220 2.0 9.0 0.00 0.00 0.00 55 1017.5
20260830144504 89 197 2.0 10.0 0.00 0.00 0.00 55 1017.5
20260830144005 89 234 3.0 10.0 0.00 0.00 0.00 55 1017.6
20260830143004 88 215 2.0 12.0 0.00 0.00 0.00 57 1017.6
20260830142504 88 224 3.0 8.0 0.00 0.00 0.00 58 1017.7
20260830142004 87 196 4.0 7.0 0.00 0.00 0.00 58 1017.8
20260830141505 87 249 4.0 9.0 0.00 0.00 0.00 59 1017.8
20260830141005 87 194 3.0 10.0 0.00 0.00 0.00 60 1017.8
20260830140504 86 192 3.0 7.0 0.00 0.00 0.00 60 1017.7
20260830140004 86 180 3.0 7.0 0.00 0.00 0.00 61 1017.7
20260830135504 86 170 3.0 7.0 0.00 0.00 0.00 62 1017.6
20260830135004 85 200 3.0 6.0 0.00 0.00 0.00 63 1017.7
20260830134504 85 192 5.0 9.0 0.00 0.00 0.00 63 1017.7
20260830134004 84 176 3.0 7.0 0.00 0.00 0.00 64 1017.6
20260830133504 84 164 5.0 7.0 0.00 0.00 0.00 65 1017.5
20260830133004 83 178 1.0 5.0 0.00 0.00 0.00 65 1017.5
20260830132004 82 190 3.0 5.0 0.00 0.00 0.00 67 1017.4
20260830131004 81 154 2.0 6.0 0.00 0.00 0.00 68 1017.4
20260830130504 81 163 2.0 5.0 0.00 0.00 0.00 68 1017.2
20260830130004 81 163 4.0 6.0 0.00 0.00 0.00 69 1017.2
20260830125504 80 162 2.0 6.0 0.00 0.00 0.00 69 1017.1
20260830124004 79 161 2.0 6.0 0.00 0.00 0.00 70 1016.9
20260830123504 79 161 2.0 5.0 0.00 0.00 0.00 70 1016.9
20260830123004 79 161 2.0 5.0 0.00 0.00 0.00 69 1016.8
20260830122504 79 161 2.0 5.0 0.00 0.00 0.00 69 1016.8